Location: Unspecified
(0.0000°N, 0.0000°E)
Time: 01:00:46
(UTC+00:00)

S-56A Canister/Altair - Pass Details

Date: 26 April 2019
Orbit: 632 x 2500 km, 38.9° (Epoch: 15 July)

Event Time Altitude Azimuth Distance (km) Brightness Sun altitude
Exits shadow 04:29:04 - 202° (SSW) 3,739 10.7 -21.6°
Reaches altitude 10° 04:29:30 10° 200° (SSW) 3,637 10.6 -21.5°
Maximum altitude 04:38:27 38° 135° (SE) 2,676 10.5 -19.3°
Drops below altitude 10° 04:50:36 10° 73° (ENE) 4,947 13.0 -16.4°
Sets 04:55:13 0° 66° (ENE) 6,091 13.8 -15.2°
